Вернуться в каталог

FENGYUN 1C DEB

АктивенSSO
NORAD 36687·DEBRIS·🇨🇳 China

Запущен May 10, 1999 с Taiyuan Satellite Launch Center

Loading…

Ближайшие Пролёты (ближайшие 24 часа)

TLE

СвежийSource: Space-Track

Эпоха: Sep 11, 2026, 11:20 UTC

1 36687U 99025DZH 26254.47255815 -.00000073  00000-0 -18838-4 0  9995
2 36687  98.6992 334.8104 0090473 218.7699 140.6954 14.04698943665513

Отслеживайте FENGYUN 1C DEB в реальном времени с AllMySat

Download on the App Store